Weather History for Gustavus, AK

Change the Weather History Date:

Tuesday, March 20, 2012

  Actual Average Record
Temperature  
Mean Temperature 34 °F -  
Max Temperature 39 °F 42 °F 52 °F (1983)
Min Temperature 28 °F 26 °F 8 °F (1954)
Degree Days  
Heating Degree Days 32    
Moisture  
Dew Point 11 °F    
Average Humidity 38    
Maximum Humidity 75    
Minimum Humidity 28    
Precipitation  
Precipitation 0.00 in - - ()
Sea Level Pressure  
Sea Level Pressure 29.24 in    
Wind  
Wind Speed 10 mph (NNW)    
Max Wind Speed 17 mph    
Max Gust Speed 29 mph    
Visibility 10 miles    
Events      
Averages and records for this station are not official NWS values.
T = Trace of Precipitation, MM = Missing Value Source: NWS Daily Summary

Daily Weather History Graph

Daily Weather History Graph

Search for Another Location

Airport:

Trip Planner

Search our weather history database for the weather conditions in past years. The results will help you decide how hot, cold, wet, or windy it might be!

Date:

Astronomy

Mar. 20, 2012 Rise Set
Actual Time 7:02 AM AKDT 7:18 PM AKDT
Civil Twilight 6:23 AM AKDT 7:58 PM AKDT
Nautical Twilight 5:35 AM AKDT 8:46 PM AKDT
Astronomical Twilight 4:44 AM AKDT 9:37 PM AKDT
Moon 6:04 AM AKDT (3/20) 5:44 PM AKDT (3/20)
Length of Visible Light 13h 35m
Length of Day
12h 16m
Waning Crescent, 3% of the Moon is Illuminated
Mar 20
Waning Crescent
Mar 22
New
Mar 30
First Quarter
Apr 6
Full
Apr 13
Last Quarter

Hourly Weather History & Observations

Time (AKDT) Temp. Windchill Dew Point Humidity Pressure Visibility Wind Dir Wind Speed Gust Speed Precip Events Conditions
12:16 AM 30.2 °F 24.3 °F 23.0 °F 75% 29.36 in 10.0 mi NNW 5.8 mph - N/A   Clear
12:36 AM 28.4 °F 23.3 °F 21.2 °F 74% 29.35 in 10.0 mi NW 4.6 mph - N/A   Clear
12:56 AM 28.4 °F 22.2 °F 21.2 °F 74% 29.34 in 10.0 mi WNW 5.8 mph - N/A   Clear
1:16 AM 28.4 °F 19.7 °F 19.4 °F 69% 29.32 in 10.0 mi NW 9.2 mph - N/A   Clear
1:36 AM 30.2 °F 21.3 °F 19.4 °F 64% 29.32 in 10.0 mi NNW 10.4 mph - N/A   Clear
1:56 AM 32.0 °F 24.8 °F 17.6 °F 55% 29.31 in 10.0 mi NNW 8.1 mph - N/A   Clear
2:16 AM 30.2 °F 21.3 °F 15.8 °F 55% 29.30 in 10.0 mi NNW 10.4 mph - N/A   Clear
2:36 AM 30.2 °F 22.6 °F 15.8 °F 55% 29.29 in 10.0 mi WNW 8.1 mph - N/A   Clear
2:56 AM 32.0 °F 23.0 °F 15.8 °F 51% 29.27 in 10.0 mi WNW 11.5 mph - N/A   Clear
3:16 AM 32.0 °F 22.5 °F 14.0 °F 48% 29.26 in 10.0 mi NW 12.7 mph - N/A   Clear
3:36 AM 32.0 °F 23.0 °F 12.2 °F 44% 29.25 in 10.0 mi WNW 11.5 mph - N/A   Clear
3:56 AM 33.8 °F 25.3 °F 12.2 °F 41% 29.24 in 10.0 mi West 11.5 mph 18.4 mph N/A   Clear
4:16 AM 33.8 °F 25.8 °F 12.2 °F 41% 29.24 in 10.0 mi West 10.4 mph 16.1 mph N/A   Clear
4:36 AM 33.8 °F 24.8 °F 10.4 °F 38% 29.23 in 10.0 mi West 12.7 mph - N/A   Clear
4:56 AM 32.0 °F 23.6 °F 10.4 °F 41% 29.23 in 10.0 mi West 10.4 mph - N/A   Clear
5:16 AM 32.0 °F 24.2 °F 10.4 °F 41% 29.23 in 10.0 mi West 9.2 mph - N/A   Clear
5:36 AM 32.0 °F 23.6 °F 10.4 °F 41% 29.22 in 10.0 mi West 10.4 mph - N/A   Clear
5:56 AM 33.8 °F 23.9 °F 10.4 °F 38% 29.22 in 10.0 mi West 15.0 mph 20.7 mph N/A   Clear
6:16 AM 33.8 °F 24.8 °F 10.4 °F 38% 29.22 in 10.0 mi WNW 12.7 mph 17.3 mph N/A   Clear
6:36 AM 33.8 °F 24.8 °F 10.4 °F 38% 29.22 in 10.0 mi NW 12.7 mph - N/A   Clear
6:56 AM 33.8 °F 25.3 °F 8.6 °F 35% 29.21 in 10.0 mi NW 11.5 mph 16.1 mph N/A   Clear
7:16 AM 32.0 °F 23.6 °F 8.6 °F 38% 29.21 in 10.0 mi NNW 10.4 mph - N/A   Clear
7:36 AM 33.8 °F 24.8 °F 8.6 °F 35% 29.20 in 10.0 mi NNW 12.7 mph - N/A   Clear
7:56 AM 35.6 °F 26.6 °F 8.6 °F 33% 29.20 in 10.0 mi North 13.8 mph 24.2 mph N/A   Clear
8:16 AM 35.6 °F 27.5 °F 8.6 °F 33% 29.20 in 10.0 mi North 11.5 mph 23.0 mph N/A   Clear
8:36 AM 35.6 °F 27.5 °F 8.6 °F 33% 29.19 in 10.0 mi NNE 11.5 mph 17.3 mph N/A   Clear
8:56 AM 37.4 °F 30.8 °F 8.6 °F 30% 29.19 in 10.0 mi NNE 9.2 mph 18.4 mph N/A   Clear
9:16 AM 37.4 °F 29.8 °F 8.6 °F 30% 29.19 in 10.0 mi North 11.5 mph 18.4 mph N/A   Clear
9:36 AM 37.4 °F 29.3 °F 8.6 °F 30% 29.19 in 10.0 mi North 12.7 mph 19.6 mph N/A   Clear
10:16 AM 37.4 °F 28.5 °F 10.4 °F 33% 29.19 in 10.0 mi North 15.0 mph 21.9 mph N/A   Clear
10:36 AM 39.2 °F 30.8 °F 10.4 °F 31% 29.19 in 10.0 mi North 15.0 mph 24.2 mph N/A   Clear
10:56 AM 39.2 °F 32.0 °F 10.4 °F 31% 29.19 in 10.0 mi North 11.5 mph - N/A   Clear
11:16 AM 39.2 °F 30.2 °F 10.4 °F 31% 29.19 in 10.0 mi North 17.3 mph - N/A   Clear
11:36 AM 39.2 °F 31.2 °F 8.6 °F 28% 29.19 in 10.0 mi North 13.8 mph 28.8 mph N/A   Clear
11:56 AM 39.2 °F 30.2 °F 10.4 °F 31% 29.19 in 10.0 mi North 17.3 mph 24.2 mph N/A   Clear
12:16 PM 39.2 °F 31.2 °F 10.4 °F 31% 29.19 in 10.0 mi North 13.8 mph 21.9 mph N/A   Clear
12:36 PM 39.2 °F 30.8 °F 10.4 °F 31% 29.19 in 10.0 mi North 15.0 mph 21.9 mph N/A   Clear
12:56 PM 39.2 °F 31.2 °F 10.4 °F 31% 29.19 in 10.0 mi North 13.8 mph 20.7 mph N/A   Clear
1:16 PM 39.2 °F 31.2 °F 8.6 °F 28% 29.20 in 10.0 mi North 13.8 mph 21.9 mph N/A   Clear
1:36 PM 39.2 °F 32.0 °F 10.4 °F 31% 29.20 in 10.0 mi NNE 11.5 mph 16.1 mph N/A   Clear
1:56 PM 39.2 °F 32.0 °F 8.6 °F 28% 29.20 in 10.0 mi NE 11.5 mph 21.9 mph N/A   Clear
2:16 PM 39.2 °F 31.6 °F 8.6 °F 28% 29.20 in 10.0 mi North 12.7 mph 19.6 mph N/A   Clear
2:36 PM 39.2 °F 31.2 °F 8.6 °F 28% 29.21 in 10.0 mi NNE 13.8 mph 21.9 mph N/A   Clear
2:56 PM 39.2 °F 31.6 °F 8.6 °F 28% 29.21 in 10.0 mi North 12.7 mph 20.7 mph N/A   Clear
3:16 PM 39.2 °F 31.2 °F 8.6 °F 28% 29.21 in 10.0 mi North 13.8 mph 21.9 mph N/A   Clear
3:36 PM 39.2 °F 30.2 °F 8.6 °F 28% 29.22 in 10.0 mi North 17.3 mph 21.9 mph N/A   Clear
3:56 PM 39.2 °F 32.0 °F 8.6 °F 28% 29.22 in 10.0 mi North 11.5 mph 20.7 mph N/A   Clear
4:16 PM 37.4 °F 28.9 °F 8.6 °F 30% 29.22 in 10.0 mi NNE 13.8 mph 19.6 mph N/A   Clear
4:36 PM 37.4 °F 32.1 °F 8.6 °F 30% 29.23 in 10.0 mi NE 6.9 mph 17.3 mph N/A   Partly Cloudy
4:56 PM 37.4 °F 30.8 °F 8.6 °F 30% 29.24 in 10.0 mi NNE 9.2 mph 16.1 mph N/A   Clear
5:16 PM 37.4 °F 28.5 °F 8.6 °F 30% 29.24 in 10.0 mi North 15.0 mph 18.4 mph N/A   Clear
5:36 PM 37.4 °F 30.3 °F 8.6 °F 30% 29.24 in 10.0 mi North 10.4 mph 16.1 mph N/A   Clear
5:56 PM 37.4 °F 30.8 °F 8.6 °F 30% 29.25 in 10.0 mi North 9.2 mph - N/A   Clear
6:16 PM 37.4 °F 30.8 °F 8.6 °F 30% 29.25 in 10.0 mi NNW 9.2 mph - N/A   Clear
6:36 PM 35.6 °F 29.2 °F 8.6 °F 33% 29.26 in 10.0 mi North 8.1 mph - N/A   Clear
6:56 PM 35.6 °F 29.9 °F 6.8 °F 30% 29.27 in 10.0 mi North 6.9 mph - N/A   Clear
7:16 PM 35.6 °F 28.6 °F 6.8 °F 30% 29.27 in 10.0 mi NNW 9.2 mph - N/A   Clear
7:36 PM 33.8 °F 27.7 °F 6.8 °F 32% 29.27 in 10.0 mi NNW 6.9 mph - N/A   Clear
7:56 PM 32.0 °F 24.8 °F 8.6 °F 38% 29.28 in 10.0 mi NW 8.1 mph - N/A   Clear
8:16 PM 32.0 °F 25.6 °F 8.6 °F 38% 29.29 in 10.0 mi NW 6.9 mph - N/A   Clear
8:36 PM 30.2 °F 24.3 °F 8.6 °F 40% 29.29 in 10.0 mi NNW 5.8 mph - N/A   Clear
8:56 PM 30.2 °F 23.4 °F 8.6 °F 40% 29.30 in 10.0 mi NNW 6.9 mph - N/A   Clear
9:16 PM 32.0 °F 25.6 °F 8.6 °F 38% 29.31 in 10.0 mi NW 6.9 mph - N/A   Clear
9:36 PM 30.2 °F 24.3 °F 8.6 °F 40% 29.31 in 10.0 mi NNW 5.8 mph - N/A   Clear
9:56 PM 30.2 °F 25.4 °F 10.4 °F 44% 29.32 in 10.0 mi North 4.6 mph - N/A   Clear
10:16 PM 28.4 °F 23.3 °F 8.6 °F 43% 29.33 in 10.0 mi NNW 4.6 mph - N/A   Clear
10:36 PM 28.4 °F 21.2 °F 10.4 °F 47% 29.33 in 10.0 mi NNW 6.9 mph - N/A   Clear
10:56 PM 28.4 °F 22.2 °F 10.4 °F 47% 29.34 in 10.0 mi NW 5.8 mph - N/A   Clear
11:16 PM 28.4 °F 24.6 °F 10.4 °F 47% 29.35 in 10.0 mi NNW 3.5 mph - N/A   Clear
11:36 PM 28.4 °F - 10.4 °F 47% 29.36 in 10.0 mi Calm Calm - N/A   Clear
11:56 PM 28.4 °F 22.2 °F 12.2 °F 51% 29.36 in 10.0 mi NW 5.8 mph - N/A   Clear